| time (UTC) | temp F | wind direction | speed MPH | gust MPH | rain 1hr in | rain 24hr in | rain mn in | humidity % | barometer mb |
| 20260504023419 | 56 | 247 | 2.0 | 2.0 | 0.00 | 0.00 | 0.00 | 59 | 1007.9 |
| 20260504022915 | 56 | 181 | 2.0 | 2.0 | 0.00 | 0.00 | 0.00 | 58 | 1007.9 |
| 20260504022412 | 56 | 270 | 2.0 | 2.0 | 0.00 | 0.00 | 0.00 | 58 | 1007.9 |
| 20260504021908 | 57 | 210 | 1.0 | 2.0 | 0.00 | 0.00 | 0.00 | 58 | 1007.8 |
| 20260504021406 | 57 | 228 | 2.0 | 2.0 | 0.00 | 0.00 | 0.00 | 58 | 1007.8 |
| 20260504020903 | 57 | 326 | 1.0 | 1.0 | 0.00 | 0.00 | 0.00 | 58 | 1007.9 |
| 20260504020359 | 57 | 324 | 1.0 | 1.0 | 0.00 | 0.00 | 0.00 | 58 | 1007.7 |
| 20260504015855 | 57 | 291 | 2.0 | 3.0 | 0.00 | 0.00 | 0.00 | 57 | 1007.6 |
| 20260504015351 | 57 | 275 | 2.0 | 3.0 | 0.00 | 0.00 | 0.00 | 58 | 1007.7 |
| 20260504014848 | 57 | 268 | 2.0 | 2.0 | 0.00 | 0.00 | 0.00 | 58 | 1007.5 |
| 20260504014343 | 57 | 164 | 1.0 | 1.0 | 0.00 | 0.00 | 0.00 | 58 | 1007.5 |
| 20260504013841 | 57 | 261 | 2.0 | 3.0 | 0.00 | 0.00 | 0.00 | 57 | 1007.5 |
| 20260504013339 | 57 | 248 | 3.0 | 3.0 | 0.00 | 0.00 | 0.00 | 58 | 1007.6 |
| 20260504012836 | 57 | 220 | 3.0 | 3.0 | 0.00 | 0.00 | 0.00 | 58 | 1007.7 |
| 20260504012334 | 57 | 222 | 5.0 | 6.0 | 0.00 | 0.00 | 0.00 | 57 | 1007.6 |
| 20260504011831 | 57 | 213 | 2.0 | 3.0 | 0.00 | 0.00 | 0.00 | 57 | 1007.5 |
| 20260504011327 | 57 | 201 | 2.0 | 2.0 | 0.00 | 0.00 | 0.00 | 57 | 1007.5 |
| 20260504010823 | 57 | 234 | 3.0 | 3.0 | 0.00 | 0.00 | 0.00 | 57 | 1007.5 |
| 20260504010319 | 58 | 220 | 4.0 | 6.0 | 0.00 | 0.00 | 0.00 | 57 | 1007.7 |
| 20260504005815 | 58 | 223 | 2.0 | 2.0 | 0.00 | 0.00 | 0.00 | 57 | 1007.5 |
| 20260504005313 | 58 | 242 | 5.0 | 8.0 | 0.00 | 0.00 | 0.00 | 56 | 1007.6 |
| 20260504004810 | 58 | 189 | 3.0 | 4.0 | 0.00 | 0.00 | 0.00 | 55 | 1007.8 |
| 20260504004308 | 58 | 258 | 1.0 | 2.0 | 0.00 | 0.00 | 0.00 | 56 | 1007.8 |
| 20260504003804 | 59 | 274 | 2.0 | 3.0 | 0.00 | 0.00 | 0.00 | 55 | 1007.6 |
| 20260504003301 | 59 | 254 | 4.0 | 6.0 | 0.00 | 0.00 | 0.00 | 55 | 1007.6 |
| 20260504002757 | 59 | 253 | 4.0 | 4.0 | 0.00 | 0.00 | 0.00 | 55 | 1007.5 |
| 20260504002254 | 59 | 227 | 2.0 | 3.0 | 0.00 | 0.00 | 0.00 | 55 | 1007.6 |
| 20260504001752 | 59 | 231 | 6.0 | 8.0 | 0.00 | 0.00 | 0.00 | 54 | 1007.4 |
| 20260504001249 | 59 | 149 | 4.0 | 6.0 | 0.00 | 0.00 | 0.00 | 55 | 1007.5 |
| 20260504000746 | 59 | 236 | 5.0 | 8.0 | 0.00 | 0.00 | 0.00 | 55 | 1007.5 |
| 20260504000243 | 59 | 247 | 7.0 | 10.0 | 0.00 | 0.00 | 0.00 | 54 | 1007.5 |
| 20260503235741 | 59 | 254 | 4.0 | 6.0 | 0.00 | 0.00 | 0.00 | 55 | 1007.7 |
| 20260503235237 | 59 | 208 | 7.0 | 9.0 | 0.00 | 0.00 | 0.00 | 55 | 1007.6 |
| 20260503234735 | 59 | 233 | 6.0 | 7.0 | 0.00 | 0.00 | 0.00 | 54 | 1007.3 |
| 20260503234233 | 59 | 231 | 6.0 | 10.0 | 0.00 | 0.00 | 0.00 | 55 | 1007.4 |
| 20260503233730 | 59 | 247 | 7.0 | 10.0 | 0.00 | 0.00 | 0.00 | 54 | 1007.4 |
| 20260503233226 | 59 | 227 | 6.0 | 7.0 | 0.00 | 0.00 | 0.00 | 55 | 1007.2 |
| 20260503232723 | 59 | 209 | 9.0 | 13.0 | 0.00 | 0.00 | 0.00 | 55 | 1007.4 |
| 20260503232220 | 58 | 212 | 4.0 | 6.0 | 0.00 | 0.00 | 0.00 | 57 | 1007.7 |
| 20260503231719 | 58 | 250 | 8.0 | 9.0 | 0.00 | 0.00 | 0.00 | 58 | 1007.9 |
| 20260503231215 | 58 | 225 | 5.0 | 7.0 | 0.00 | 0.00 | 0.00 | 58 | 1008.0 |
| 20260503230711 | 59 | 246 | 5.0 | 7.0 | 0.00 | 0.00 | 0.00 | 57 | 1008.1 |
| 20260503230208 | 59 | 215 | 8.0 | 10.0 | 0.00 | 0.00 | 0.00 | 55 | 1008.0 |
| 20260503225706 | 59 | 246 | 4.0 | 8.0 | 0.00 | 0.00 | 0.00 | 54 | 1008.0 |
| 20260503225206 | 59 | 242 | 6.0 | 7.0 | 0.00 | 0.00 | 0.00 | 53 | 1007.9 |
| 20260503224703 | 59 | 223 | 5.0 | 6.0 | 0.00 | 0.00 | 0.00 | 54 | 1007.7 |
| 20260503224201 | 59 | 201 | 8.0 | 10.0 | 0.00 | 0.00 | 0.00 | 53 | 1007.7 |
| 20260503223658 | 59 | 237 | 5.0 | 7.0 | 0.00 | 0.00 | 0.00 | 54 | 1007.6 |
| 20260503223155 | 59 | 197 | 6.0 | 8.0 | 0.00 | 0.00 | 0.00 | 54 | 1007.6 |
| 20260503222652 | 59 | 220 | 7.0 | 9.0 | 0.00 | 0.00 | 0.00 | 51 | 1007.8 |
| 20260503222150 | 60 | 227 | 5.0 | 7.0 | 0.00 | 0.00 | 0.00 | 54 | 1007.9 |
| 20260503221648 | 60 | 247 | 5.0 | 7.0 | 0.00 | 0.00 | 0.00 | 52 | 1008.5 |
| 20260503221145 | 60 | 216 | 7.0 | 10.0 | 0.00 | 0.00 | 0.00 | 51 | 1008.5 |
| 20260503220642 | 60 | 199 | 4.0 | 6.0 | 0.00 | 0.00 | 0.00 | 52 | 1008.5 |
| 20260503220138 | 60 | 246 | 7.0 | 8.0 | 0.00 | 0.00 | 0.00 | 50 | 1008.1 |
| 20260503215636 | 61 | 253 | 6.0 | 8.0 | 0.00 | 0.00 | 0.00 | 49 | 1008.3 |
| 20260503215132 | 62 | 145 | 11.0 | 14.0 | 0.00 | 0.00 | 0.00 | 48 | 1008.4 |
| 20260503214631 | 62 | 222 | 6.0 | 9.0 | 0.00 | 0.00 | 0.00 | 48 | 1008.5 |
| 20260503214126 | 62 | 235 | 10.0 | 11.0 | 0.00 | 0.00 | 0.00 | 48 | 1008.7 |
| 20260503213626 | 61 | 260 | 9.0 | 11.0 | 0.00 | 0.00 | 0.00 | 48 | 1009.0 |
| 20260503213122 | 61 | 235 | 9.0 | 11.0 | 0.00 | 0.00 | 0.00 | 47 | 1009.1 |
| 20260503212620 | 62 | 237 | 14.0 | 21.0 | 0.00 | 0.00 | 0.00 | 45 | 1008.9 |
| 20260503212117 | 62 | 275 | 10.0 | 11.0 | 0.00 | 0.00 | 0.00 | 46 | 1008.7 |
| 20260503211614 | 63 | 178 | 9.0 | 11.0 | 0.00 | 0.00 | 0.00 | 46 | 1009.0 |
| 20260503211110 | 63 | 254 | 10.0 | 13.0 | 0.00 | 0.00 | 0.00 | 46 | 1008.8 |
| 20260503210606 | 63 | 272 | 8.0 | 10.0 | 0.00 | 0.00 | 0.00 | 47 | 1009.1 |
| 20260503205559 | 62 | 217 | 6.0 | 8.0 | 0.00 | 0.00 | 0.00 | 48 | 1009.3 |
| 20260503205055 | 62 | 222 | 5.0 | 9.0 | 0.00 | 0.00 | 0.00 | 48 | 1009.3 |
| 20260503204552 | 62 | 256 | 11.0 | 16.0 | 0.00 | 0.00 | 0.00 | 46 | 1009.7 |
| 20260503204049 | 63 | 268 | 9.0 | 11.0 | 0.00 | 0.00 | 0.00 | 46 | 1009.8 |
| 20260503203546 | 62 | 202 | 8.0 | 9.0 | 0.00 | 0.00 | 0.00 | 47 | 1010.1 |
| 20260503203043 | 63 | 259 | 9.0 | 14.0 | 0.00 | 0.00 | 0.00 | 46 | 1010.2 |
| 20260503202542 | 62 | 236 | 6.0 | 9.0 | 0.00 | 0.00 | 0.00 | 47 | 1010.5 |
| 20260503202039 | 62 | 207 | 9.0 | 10.0 | 0.00 | 0.00 | 0.00 | 46 | 1010.6 |
| 20260503201537 | 62 | 212 | 7.0 | 9.0 | 0.00 | 0.00 | 0.00 | 45 | 1010.6 |
| 20260503201034 | 62 | 264 | 8.0 | 10.0 | 0.00 | 0.00 | 0.00 | 44 | 1011.0 |
| 20260503200530 | 62 | 214 | 7.0 | 9.0 | 0.00 | 0.00 | 0.00 | 46 | 1011.2 |
| 20260503200027 | 62 | 186 | 5.0 | 7.0 | 0.00 | 0.00 | 0.00 | 46 | 1011.1 |
| 20260503195524 | 62 | 220 | 6.0 | 7.0 | 0.00 | 0.00 | 0.00 | 46 | 1011.3 |
| 20260503195021 | 62 | 171 | 9.0 | 14.0 | 0.00 | 0.00 | 0.00 | 47 | 1011.2 |
| 20260503194518 | 62 | 208 | 7.0 | 11.0 | 0.00 | 0.00 | 0.00 | 45 | 1011.5 |
| 20260503194018 | 62 | 205 | 7.0 | 9.0 | 0.00 | 0.00 | 0.00 | 47 | 1011.6 |
| 20260503193515 | 61 | 246 | 6.0 | 8.0 | 0.00 | 0.00 | 0.00 | 46 | 1011.4 |
| 20260503193010 | 60 | 196 | 8.0 | 10.0 | 0.00 | 0.00 | 0.00 | 46 | 1011.8 |
| 20260503192506 | 60 | 226 | 7.0 | 9.0 | 0.00 | 0.00 | 0.00 | 47 | 1012.1 |
| 20260503192002 | 61 | 226 | 9.0 | 10.0 | 0.00 | 0.00 | 0.00 | 46 | 1012.0 |
| 20260503191500 | 62 | 231 | 9.0 | 10.0 | 0.00 | 0.00 | 0.00 | 46 | 1011.7 |
| 20260503190955 | 61 | 222 | 7.0 | 9.0 | 0.00 | 0.00 | 0.00 | 48 | 1011.7 |
| 20260503190453 | 62 | 247 | 8.0 | 11.0 | 0.00 | 0.00 | 0.00 | 46 | 1011.4 |
| 20260503185950 | 62 | 242 | 9.0 | 15.0 | 0.00 | 0.00 | 0.00 | 46 | 1011.7 |
| 20260503185446 | 61 | 260 | 6.0 | 8.0 | 0.00 | 0.00 | 0.00 | 45 | 1011.6 |
| 20260503184946 | 61 | 232 | 8.0 | 13.0 | 0.00 | 0.00 | 0.00 | 46 | 1011.7 |
| 20260503184443 | 61 | 233 | 5.0 | 6.0 | 0.00 | 0.00 | 0.00 | 46 | 1012.1 |
| 20260503183939 | 62 | 224 | 8.0 | 10.0 | 0.00 | 0.00 | 0.00 | 46 | 1012.0 |
| 20260503183436 | 62 | 201 | 8.0 | 10.0 | 0.00 | 0.00 | 0.00 | 46 | 1012.2 |
| 20260503182933 | 63 | 191 | 5.0 | 6.0 | 0.00 | 0.00 | 0.00 | 47 | 1011.9 |
| 20260503182432 | 62 | 236 | 11.0 | 14.0 | 0.00 | 0.00 | 0.00 | 46 | 1012.4 |
| 20260503181929 | 62 | 210 | 9.0 | 11.0 | 0.00 | 0.00 | 0.00 | 48 | 1012.4 |
| 20260503181426 | 61 | 264 | 4.0 | 8.0 | 0.00 | 0.00 | 0.00 | 49 | 1012.6 |
| 20260503180921 | 61 | 255 | 6.0 | 8.0 | 0.00 | 0.00 | 0.00 | 45 | 1012.5 |
| 20260503180420 | 62 | 236 | 7.0 | 10.0 | 0.00 | 0.00 | 0.00 | 46 | 1012.5 |
| 20260503175916 | 62 | 213 | 9.0 | 10.0 | 0.00 | 0.00 | 0.00 | 47 | 1012.7 |
| 20260503175415 | 62 | 255 | 7.0 | 11.0 | 0.00 | 0.00 | 0.00 | 46 | 1012.9 |
| 20260503174909 | 61 | 181 | 7.0 | 8.0 | 0.00 | 0.00 | 0.00 | 47 | 1013.3 |
| 20260503174408 | 60 | 213 | 10.0 | 14.0 | 0.00 | 0.00 | 0.00 | 46 | 1013.2 |
| 20260503173903 | 61 | 240 | 9.0 | 13.0 | 0.00 | 0.00 | 0.00 | 44 | 1013.5 |
| 20260503173359 | 61 | 266 | 12.0 | 14.0 | 0.00 | 0.00 | 0.00 | 46 | 1013.7 |
| 20260503172856 | 60 | 237 | 8.0 | 11.0 | 0.00 | 0.00 | 0.00 | 46 | 1013.7 |
| 20260503172354 | 59 | 190 | 15.0 | 18.0 | 0.00 | 0.00 | 0.00 | 47 | 1013.6 |
| 20260503171849 | 59 | 264 | 6.0 | 7.0 | 0.00 | 0.00 | 0.00 | 47 | 1013.8 |
| 20260503171346 | 59 | 282 | 5.0 | 8.0 | 0.00 | 0.00 | 0.00 | 47 | 1014.1 |
| 20260503170844 | 60 | 263 | 8.0 | 9.0 | 0.00 | 0.00 | 0.00 | 46 | 1013.9 |
| 20260503170340 | 59 | 246 | 3.0 | 4.0 | 0.00 | 0.00 | 0.00 | 45 | 1013.9 |
| 20260503150733 | 56 | 196 | 6.0 | 13.0 | 0.00 | 0.00 | 0.00 | 51 | 1015.4 |
| 20260503150229 | 56 | 204 | 5.0 | 8.0 | 0.00 | 0.00 | 0.00 | 51 | 1015.5 |
| 20260503140153 | 52 | 236 | 10.0 | 14.0 | 0.00 | 0.00 | 0.00 | 50 | 1015.5 |
| 20260503131123 | 48 | 182 | 4.0 | 4.0 | 0.00 | 0.00 | 0.00 | 61 | 1015.7 |
| 20260503130620 | 47 | 185 | 4.0 | 6.0 | 0.00 | 0.00 | 0.00 | 62 | 1015.5 |
| 20260503130118 | 46 | 232 | 4.0 | 4.0 | 0.00 | 0.00 | 0.00 | 64 | 1015.6 |
| 20260503110510 | 38 | 250 | 2.0 | 2.0 | 0.00 | 0.00 | 0.00 | 76 | 1015.1 |
| 20260503090402 | 38 | 300 | 1.0 | 1.0 | 0.00 | 0.00 | 0.00 | 78 | 1014.9 |
| 20260503081329 | 37 | 322 | 0.0 | 0.0 | 0.00 | 0.00 | 0.00 | 80 | 1014.9 |
| 20260503080825 | 37 | 310 | 0.0 | 0.0 | 0.00 | 0.00 | 0.00 | 81 | 1014.9 |
| 20260503080323 | 36 | 309 | 0.0 | 0.0 | 0.00 | 0.00 | 0.00 | 82 | 1014.8 |
| 20260503072759 | 37 | 316 | 0.0 | 0.0 | 0.00 | 0.00 | 0.00 | 82 | 1014.8 |
| 20260503072256 | 36 | 317 | 0.0 | 0.0 | 0.00 | 0.00 | 0.00 | 83 | 1015.0 |
| 20260503071752 | 36 | 322 | 0.0 | 0.0 | 0.00 | 0.00 | 0.00 | 84 | 1015.0 |
| 20260503071249 | 36 | 323 | 0.0 | 0.0 | 0.00 | 0.00 | 0.00 | 84 | 1014.9 |
| 20260503070745 | 36 | 322 | 0.0 | 0.0 | 0.00 | 0.00 | 0.00 | 85 | 1015.0 |
| 20260503070244 | 36 | 315 | 0.0 | 0.0 | 0.00 | 0.00 | 0.00 | 87 | 1015.1 |
| 20260503060215 | 36 | 324 | 0.0 | 0.0 | 0.00 | 0.00 | 0.00 | 89 | 1015.2 |
| 20260503054701 | 36 | 324 | 0.0 | 0.0 | 0.00 | 0.00 | 0.00 | 88 | 1015.4 |
| 20260503054159 | 37 | 324 | 0.0 | 0.0 | 0.00 | 0.00 | 0.00 | 88 | 1015.3 |
| 20260503053657 | 37 | 323 | 0.0 | 0.0 | 0.00 | 0.00 | 0.00 | 87 | 1015.4 |
| 20260503053155 | 37 | 323 | 0.0 | 0.0 | 0.00 | 0.00 | 0.00 | 87 | 1015.4 |
| 20260503052651 | 37 | 323 | 0.0 | 0.0 | 0.00 | 0.00 | 0.00 | 87 | 1015.5 |
| 20260503052148 | 37 | 323 | 0.0 | 0.0 | 0.00 | 0.00 | 0.00 | 87 | 1015.4 |
| 20260503051643 | 37 | 324 | 0.0 | 0.0 | 0.00 | 0.00 | 0.00 | 86 | 1015.5 |
| 20260503051141 | 37 | 323 | 0.0 | 0.0 | 0.00 | 0.00 | 0.00 | 86 | 1015.5 |
| 20260503050637 | 37 | 323 | 0.0 | 0.0 | 0.00 | 0.00 | 0.00 | 85 | 1015.6 |
| 20260503050134 | 38 | 323 | 0.0 | 0.0 | 0.00 | 0.00 | 0.00 | 85 | 1015.5 |
| 20260503045632 | 38 | 323 | 0.0 | 0.0 | 0.00 | 0.00 | 0.00 | 84 | 1015.6 |
| 20260503045129 | 38 | 323 | 0.0 | 0.0 | 0.00 | 0.00 | 0.00 | 83 | 1015.6 |
| 20260503044625 | 38 | 324 | 0.0 | 0.0 | 0.00 | 0.00 | 0.00 | 83 | 1015.6 |
| 20260503044123 | 38 | 322 | 0.0 | 0.0 | 0.00 | 0.00 | 0.00 | 82 | 1015.6 |
| 20260503043619 | 38 | 288 | 0.0 | 0.0 | 0.00 | 0.00 | 0.00 | 82 | 1015.5 |
| 20260503043116 | 38 | 288 | 0.0 | 0.0 | 0.00 | 0.00 | 0.00 | 82 | 1015.5 |
| 20260503042613 | 38 | 324 | 0.0 | 0.0 | 0.00 | 0.00 | 0.00 | 82 | 1015.8 |
| 20260503042109 | 38 | 324 | 0.0 | 0.0 | 0.00 | 0.00 | 0.00 | 82 | 1015.6 |
| 20260503041605 | 38 | 324 | 0.0 | 0.0 | 0.00 | 0.00 | 0.00 | 83 | 1015.7 |
| 20260503041104 | 38 | 325 | 0.0 | 0.0 | 0.00 | 0.00 | 0.00 | 82 | 1015.4 |
| 20260503040600 | 38 | 325 | 0.0 | 0.0 | 0.00 | 0.00 | 0.00 | 82 | 1015.5 |
| 20260503040058 | 38 | 325 | 0.0 | 0.0 | 0.00 | 0.00 | 0.00 | 82 | 1015.6 |
| 20260503035554 | 39 | 324 | 0.0 | 0.0 | 0.00 | 0.00 | 0.00 | 82 | 1015.6 |
| 20260503035052 | 39 | 324 | 0.0 | 0.0 | 0.00 | 0.00 | 0.00 | 82 | 1015.6 |
| 20260503034549 | 39 | 324 | 0.0 | 0.0 | 0.00 | 0.00 | 0.00 | 82 | 1015.6 |
| 20260503034046 | 39 | 324 | 1.0 | 1.0 | 0.00 | 0.00 | 0.00 | 82 | 1015.6 |
| 20260503033543 | 39 | 324 | 0.0 | 0.0 | 0.00 | 0.00 | 0.00 | 82 | 1015.5 |
| 20260503033041 | 39 | 324 | 0.0 | 0.0 | 0.00 | 0.00 | 0.00 | 81 | 1015.6 |
| 20260503032539 | 39 | 324 | 0.0 | 0.0 | 0.00 | 0.00 | 0.00 | 81 | 1015.7 |
| 20260503032037 | 39 | 324 | 0.0 | 0.0 | 0.00 | 0.00 | 0.00 | 81 | 1015.6 |
| 20260503031535 | 39 | 324 | 0.0 | 0.0 | 0.00 | 0.00 | 0.00 | 80 | 1015.6 |
| 20260503031032 | 39 | 324 | 1.0 | 1.0 | 0.00 | 0.00 | 0.00 | 80 | 1015.6 |
| 20260503030527 | 39 | 325 | 0.0 | 0.0 | 0.00 | 0.00 | 0.00 | 80 | 1015.4 |
| 20260503030025 | 39 | 325 | 0.0 | 0.0 | 0.00 | 0.00 | 0.00 | 79 | 1015.5 |
| 20260503025521 | 39 | 325 | 0.0 | 0.0 | 0.00 | 0.00 | 0.00 | 78 | 1015.6 |
| 20260503025019 | 39 | 325 | 0.0 | 0.0 | 0.00 | 0.00 | 0.00 | 77 | 1015.7 |
| 20260503024515 | 39 | 324 | 0.0 | 0.0 | 0.00 | 0.00 | 0.00 | 77 | 1015.6 |
| 20260503024013 | 39 | 325 | 1.0 | 1.0 | 0.00 | 0.00 | 0.00 | 78 | 1015.5 |